Starlink 5799

operational
NORAD ID: 56002 Int'l Des: 2023-042 Owner: SPXS Country: US Constellation: starlink
LEOCIRCULAR

关于 Starlink 5799

正在加载描述...

实时位置

正在加载3D地球...

即将过境

高度历史

Altitude vs Time

uPlot chart will show altitude changes over time

两行轨道根数

1 56002U 23042S 25302.99687944 .00002691 00000-0 21424-3 0 9996
2 56002 43.0041 46.0133 0001090 281.0718 79.0002 15.02535115143252
Epoch: Oct 29, 2025 • Age: 20 hours

当前状态

高度 567.2 km
速度 7.58 km/s
星下点 -31.28°S, 78.86°W
发射日期 Mar 24, 2023
运行时间 2.6 years
类型 internet

技术详情

分类 Payload
质量 305.00 kg
干质量 290.00 kg
总质量 305.00 kg
长度 0.20 m
直径 2.80 m
跨度 9.00 m
形状 Box + pan
制造商 SPXS
平台类型 Starlink
阶段状态 In Orbit
所有者/国家 SPXS/US

大型星座

Loading constellations...